sat.trackr.live / text

‹ back to catalog

STARLINK-6048

NORAD 56459 · 2023-064M

PAYLOAD ACTIVE UNKNOWN

§ Identity

Operator
Country
US
Launch date
2023-05-10
Launch site
AFWTR
Launch vehicle
Mass (kg)
RCS (m²)

Purposes: comms

External: N2YO · Heavens-Above · Gunter

§ Orbital elements

Epoch: 2026-09-20T14:11:01.321728Z

Period
96.11 min
Inclination
70.0011°
Eccentricity
0.0003313
Mean motion
14.98331129 rev/d
Perigee alt
569.7 km
Apogee alt
574.4 km
Semi-major
6,950.2 km
B*
1.9682e-5
RAAN
12.9095°
Arg perigee
268.4022°
Mean anomaly
91.6757°
Rev number
18,443

§ Raw data

STARLINK-60481 56459U 23064M   26263.59098752  .00000142  00000+0  19682-4 0  99942 56459  70.0011  12.9095 0003313 268.4022  91.6757 14.98331129184436

JSON: /api/v1/satellites/56459 · /tle

For live sub-satellite position, see the globe view (requires WebGL).

§ Visibility from observer

Set your observer location to see the next 7 days of passes ≥ 10°. The values pass through the URL so the page stays shareable.

No JS? Fill the form by hand. The geolocation button needs JavaScript.